, TX

(GMT )
Port Isabel

Weather History for KPIL - January, 2013

Change the Weather History Date:

Sunday, January 27, 2013

  Actual Average Record
Temperature  
Mean Temperature 75 °F -  
Max Temperature 81 °F - - ()
Min Temperature 69 °F - - ()
Cooling Degree Days 10    
Growing Degree Days 25 (Base 50)    
Moisture  
Dew Point 67 °F    
Average Humidity 79    
Maximum Humidity 90    
Minimum Humidity 60    
Precipitation  
Precipitation 0.00 in - - ()
Sea Level Pressure  
Sea Level Pressure 30.02 in    
Wind  
Wind Speed 14 mph (SSE)    
Max Wind Speed 25 mph    
Max Gust Speed 33 mph    
Visibility 8 miles    
Events      
T = Trace of Precipitation, MM = Missing Value Source: NWS Daily Summary

Daily Weather History Graph

Daily Weather History Graph

Search for Another Location

Airport or City:

Trip Planner

Search our weather history database for the weather conditions in past years. The results will help you decide how hot, cold, wet, or windy it might be!

Date:

Astronomy

Jan. 27, 2013 Rise Set
Actual Time 7:15 AM CST 6:09 PM CST
Civil Twilight 6:51 AM CST 6:33 PM CST
Nautical Twilight 6:23 AM CST 7:01 PM CST
Astronomical Twilight 5:56 AM CST 7:28 PM CST
Moon 6:54 PM CST (1/27) 7:17 AM CST (1/27)
Length of Visible Light 11h 42m
Length of Day
10h 53m
Full, 100% of the Moon is Illuminated
Jan 27
Full
Feb 3
Last Quarter
Feb 10
New
Feb 17
First Quarter
Feb 25
Full

Hourly Weather History & Observations

Time (CST) Temp. Heat Index Dew Point Humidity Pressure Visibility Wind Dir Wind Speed Gust Speed Precip Events Conditions
12:53 AM 69.1 °F - 64.9 °F 87% 30.08 in 8.0 mi SE 9.2 mph - N/A   Mostly Cloudy
1:53 AM 69.1 °F - 66.0 °F 90% 30.06 in 8.0 mi SE 11.5 mph - N/A   Partly Cloudy
2:13 AM 69.8 °F - 66.2 °F 88% 30.05 in 8.0 mi SSE 12.7 mph - N/A   Mostly Cloudy
2:53 AM 70.0 °F - 66.0 °F 87% 30.05 in 8.0 mi SSE 10.4 mph - N/A   Mostly Cloudy
3:48 AM 69.8 °F - 66.2 °F 88% 30.03 in 8.0 mi SSE 10.4 mph - N/A   Scattered Clouds
3:53 AM 70.0 °F - 64.9 °F 84% 30.04 in 8.0 mi SSE 11.5 mph - N/A   Partly Cloudy
4:53 AM 70.0 °F - 66.0 °F 87% 30.02 in 9.0 mi SSE 11.5 mph - N/A   Clear
5:53 AM 70.0 °F - 66.0 °F 87% 30.02 in 8.0 mi SSE 12.7 mph - N/A   Clear
6:53 AM 72.0 °F - 66.9 °F 84% 30.03 in 8.0 mi SE 13.8 mph - N/A   Mostly Cloudy
7:53 AM 72.0 °F - 66.9 °F 84% 30.04 in 7.0 mi SSE 11.5 mph - N/A   Mostly Cloudy
8:53 AM 73.9 °F - 68.0 °F 82% 30.06 in 7.0 mi SSE 15.0 mph - N/A   Mostly Cloudy
9:39 AM 77.0 °F - 68.0 °F 74% 30.07 in 8.0 mi SSE 18.4 mph 26.5 mph N/A   Mostly Cloudy
9:53 AM 77.0 °F - 68.0 °F 74% 30.07 in 8.0 mi SSE 17.3 mph 26.5 mph N/A   Mostly Cloudy
10:24 AM 77.0 °F - 66.2 °F 69% 30.07 in 8.0 mi South 21.9 mph 27.6 mph N/A   Mostly Cloudy
10:53 AM 78.1 °F - 66.9 °F 68% 30.06 in 8.0 mi SSE 21.9 mph 31.1 mph 0.00 in   Mostly Cloudy
11:53 AM 79.0 °F - 64.9 °F 62% 30.04 in 8.0 mi SSE 21.9 mph 32.2 mph N/A   Overcast
12:53 PM 81.0 °F 83.0 °F 66.0 °F 60% 30.01 in 8.0 mi South 23.0 mph 32.2 mph N/A   Mostly Cloudy
1:53 PM 81.0 °F 83.0 °F 66.0 °F 60% 29.98 in 8.0 mi SSE 25.3 mph 33.4 mph N/A   Mostly Cloudy
2:53 PM 80.1 °F 82.3 °F 66.9 °F 64% 29.97 in 8.0 mi SSE 19.6 mph 32.2 mph N/A   Mostly Cloudy
3:45 PM 78.8 °F - 68.0 °F 69% 29.97 in 8.0 mi SSE 20.7 mph 27.6 mph N/A   Overcast
3:53 PM 79.0 °F - 68.0 °F 69% 29.96 in 8.0 mi SSE 21.9 mph 27.6 mph N/A   Overcast
4:53 PM 77.0 °F - 69.1 °F 76% 29.97 in 8.0 mi SSE 18.4 mph 27.6 mph N/A   Overcast
5:08 PM 77.0 °F - 69.8 °F 78% 29.97 in 8.0 mi SSE 16.1 mph - N/A   Overcast
5:53 PM 75.9 °F - 68.0 °F 76% 29.97 in 7.0 mi SE 21.9 mph 26.5 mph N/A   Overcast
6:23 PM 73.4 °F - 66.2 °F 78% 29.98 in 8.0 mi SE 16.1 mph 25.3 mph N/A   Scattered Clouds
6:53 PM 73.0 °F - 66.9 °F 81% 29.99 in 8.0 mi SE 13.8 mph 23.0 mph N/A   Clear
7:53 PM 73.0 °F - 66.9 °F 81% 30.01 in 8.0 mi SE 13.8 mph - N/A   Clear
8:53 PM 72.0 °F - 66.9 °F 84% 30.01 in 8.0 mi SE 15.0 mph - N/A   Clear
9:53 PM 73.0 °F - 68.0 °F 84% 30.02 in 7.0 mi SSE 16.1 mph - N/A   Scattered Clouds
10:53 PM 73.0 °F - 68.0 °F 84% 30.02 in 7.0 mi SE 13.8 mph - N/A   Mostly Cloudy
11:11 PM 73.4 °F - 69.8 °F 88% 30.02 in 7.0 mi SE 13.8 mph - N/A   Overcast
11:26 PM 73.4 °F - 69.8 °F 88% 30.02 in 7.0 mi SSE 15.0 mph - N/A   Overcast
11:34 PM 73.4 °F - 69.8 °F 88% 30.02 in 7.0 mi SSE 15.0 mph 25.3 mph N/A   Overcast
11:53 PM 73.9 °F - 69.1 °F 85% 30.02 in 7.0 mi SSE 16.1 mph - N/A   Overcast